| time (UTC) | temp C | wind direction | speed KPH | gust KPH | rain 1hr cm | rain 24hr cm | rain mn cm | humidity % | barometer mb |
| 20260505093032 | 19 | 213 | 0.0 | 0.0 | 0.00 | 0.00 | 0.00 | 93 | 1016.2 |
| 20260505092826 | 19 | 213 | 0.0 | 0.0 | 0.00 | 0.00 | 0.00 | 93 | 1017.6 |
| 20260505092324 | 19 | 213 | 0.0 | 0.0 | 0.00 | 0.00 | 0.00 | 93 | 1017.5 |
| 20260505091822 | 19 | 213 | 0.0 | 0.0 | 0.00 | 0.00 | 0.00 | 94 | 1017.8 |
| 20260505091507 | 19 | 214 | 0.0 | 0.0 | 0.00 | 0.00 | 0.00 | 93 | 1016.2 |
| 20260505091322 | 19 | 213 | 0.0 | 0.0 | 0.00 | 0.00 | 0.00 | 93 | 1017.5 |
| 20260505090821 | 19 | 213 | 0.0 | 0.0 | 0.00 | 0.00 | 0.00 | 93 | 1017.6 |
| 20260505090321 | 19 | 213 | 0.0 | 0.0 | 0.00 | 0.00 | 0.00 | 93 | 1017.5 |
| 20260505090052 | 19 | 213 | 0.0 | 0.0 | 0.00 | 0.00 | 0.00 | 93 | 1016.1 |
| 20260505085822 | 19 | 213 | 0.0 | 0.0 | 0.00 | 0.00 | 0.00 | 93 | 1017.5 |
| 20260505085322 | 19 | 213 | 0.0 | 0.0 | 0.00 | 0.00 | 0.00 | 93 | 1017.4 |
| 20260505084822 | 19 | 213 | 0.0 | 0.0 | 0.00 | 0.00 | 0.00 | 93 | 1017.3 |
| 20260505084552 | 19 | 213 | 0.0 | 0.0 | 0.00 | 0.00 | 0.00 | 93 | 1017.3 |
| 20260505084548 | 19 | 213 | 0.0 | 0.0 | 0.00 | 0.00 | 0.00 | 93 | 1016.0 |
| 20260505083819 | 19 | 214 | 0.0 | 0.0 | 0.00 | 0.00 | 0.00 | 93 | 1017.2 |
| 20260505083317 | 19 | 213 | 0.0 | 0.0 | 0.00 | 0.00 | 0.00 | 93 | 1017.3 |
| 20260505083041 | 19 | 213 | 0.0 | 0.0 | 0.00 | 0.00 | 0.00 | 93 | 1015.8 |
| 20260505082816 | 19 | 213 | 0.0 | 0.0 | 0.00 | 0.00 | 0.00 | 93 | 1017.3 |
| 20260505082316 | 19 | 214 | 0.0 | 0.0 | 0.00 | 0.00 | 0.00 | 93 | 1017.2 |
| 20260505081818 | 19 | 213 | 0.0 | 0.0 | 0.00 | 0.00 | 0.00 | 93 | 1017.2 |
| 20260505081535 | 19 | 213 | 0.0 | 0.0 | 0.00 | 0.00 | 0.00 | 93 | 1015.8 |
| 20260505081310 | 19 | 213 | 0.0 | 0.0 | 0.00 | 0.00 | 0.00 | 93 | 1017.2 |
| 20260505080808 | 20 | 213 | 0.0 | 0.0 | 0.00 | 0.00 | 0.00 | 93 | 1017.2 |
| 20260505080309 | 20 | 213 | 0.0 | 0.0 | 0.00 | 0.00 | 0.00 | 93 | 1017.2 |
| 20260505080026 | 19 | 213 | 0.0 | 0.0 | 0.00 | 0.00 | 0.00 | 93 | 1015.8 |
| 20260505075809 | 20 | 213 | 0.0 | 0.0 | 0.00 | 0.00 | 0.00 | 93 | 1017.2 |
| 20260505075306 | 20 | 213 | 0.0 | 0.0 | 0.00 | 0.00 | 0.00 | 93 | 1017.2 |
| 20260505075035 | 20 | 213 | 0.0 | 0.0 | 0.00 | 0.00 | 0.00 | 93 | 1017.3 |
| 20260505074509 | 20 | 213 | 0.0 | 0.0 | 0.00 | 0.00 | 0.00 | 93 | 1015.8 |
| 20260505074307 | 20 | 213 | 0.0 | 0.0 | 0.00 | 0.00 | 0.00 | 93 | 1017.2 |
| 20260505073805 | 20 | 213 | 0.0 | 0.0 | 0.00 | 0.00 | 0.00 | 93 | 1017.2 |
| 20260505073304 | 20 | 213 | 0.0 | 0.0 | 0.00 | 0.00 | 0.00 | 93 | 1017.2 |
| 20260505073111 | 20 | 213 | 0.0 | 0.0 | 0.00 | 0.00 | 0.00 | 93 | 1015.8 |
| 20260505072803 | 20 | 213 | 0.0 | 0.0 | 0.00 | 0.00 | 0.00 | 93 | 1017.2 |
| 20260505072305 | 20 | 213 | 0.0 | 0.0 | 0.00 | 0.00 | 0.00 | 93 | 1017.3 |
| 20260505071801 | 20 | 213 | 0.0 | 0.0 | 0.00 | 0.00 | 0.00 | 93 | 1017.3 |
| 20260505071533 | 20 | 213 | 0.0 | 0.0 | 0.00 | 0.00 | 0.00 | 93 | 1015.9 |
| 20260505071300 | 20 | 213 | 0.0 | 0.0 | 0.00 | 0.00 | 0.00 | 93 | 1017.3 |
| 20260505070758 | 20 | 214 | 0.0 | 0.0 | 0.00 | 0.00 | 0.00 | 93 | 1017.2 |
| 20260505070256 | 20 | 213 | 0.0 | 0.0 | 0.00 | 0.00 | 0.00 | 93 | 1017.2 |
| 20260505070007 | 20 | 213 | 0.0 | 0.0 | 0.00 | 0.00 | 0.00 | 93 | 1015.7 |
| 20260505065756 | 20 | 213 | 0.0 | 0.0 | 0.00 | 0.00 | 0.00 | 93 | 1017.1 |
| 20260505065255 | 20 | 213 | 0.0 | 1.6 | 0.00 | 0.00 | 0.00 | 93 | 1017.1 |
| 20260505065028 | 20 | 213 | 0.0 | 1.6 | 0.00 | 0.00 | 0.00 | 93 | 1017.2 |
| 20260505064548 | 20 | 213 | 0.0 | 1.6 | 0.00 | 0.00 | 0.00 | 93 | 1015.7 |
| 20260505064249 | 20 | 213 | 0.0 | 0.0 | 0.00 | 0.00 | 0.00 | 93 | 1017.2 |
| 20260505063748 | 20 | 213 | 0.0 | 3.2 | 0.00 | 0.00 | 0.00 | 93 | 1017.3 |
| 20260505063246 | 20 | 213 | 0.0 | 3.2 | 0.00 | 0.00 | 0.00 | 93 | 1017.3 |
| 20260505063030 | 20 | 213 | 0.0 | 3.2 | 0.00 | 0.00 | 0.00 | 93 | 1015.8 |
| 20260505062744 | 20 | 213 | 0.0 | 1.6 | 0.00 | 0.00 | 0.00 | 93 | 1017.3 |
| 20260505062516 | 20 | 213 | 0.0 | 0.0 | 0.00 | 0.00 | 0.00 | 93 | 1017.4 |
| 20260505061743 | 20 | 213 | 0.0 | 0.0 | 0.00 | 0.00 | 0.00 | 93 | 1017.4 |
| 20260505061518 | 20 | 213 | 0.0 | 0.0 | 0.00 | 0.00 | 0.00 | 93 | 1016.0 |
| 20260505061239 | 20 | 213 | 0.0 | 0.0 | 0.00 | 0.00 | 0.00 | 93 | 1017.3 |
| 20260505060736 | 20 | 213 | 0.0 | 0.0 | 0.00 | 0.00 | 0.00 | 93 | 1017.5 |
| 20260505060235 | 20 | 213 | 0.0 | 0.0 | 0.00 | 0.00 | 0.00 | 93 | 1017.4 |
| 20260505060033 | 20 | 213 | 0.0 | 0.0 | 0.00 | 0.00 | 0.00 | 93 | 1016.1 |
| 20260505055734 | 20 | 214 | 0.0 | 0.0 | 0.00 | 0.00 | 0.00 | 93 | 1017.5 |
| 20260505055235 | 20 | 213 | 0.0 | 0.0 | 0.00 | 0.00 | 0.00 | 93 | 1017.6 |
| 20260505055009 | 20 | 213 | 0.0 | 0.0 | 0.00 | 0.00 | 0.00 | 93 | 1017.8 |
| 20260505054502 | 20 | 214 | 0.0 | 0.0 | 0.00 | 0.00 | 0.00 | 93 | 1016.4 |
| 20260505054229 | 20 | 213 | 0.0 | 0.0 | 0.00 | 0.00 | 0.00 | 93 | 1017.8 |
| 20260505053729 | 20 | 214 | 0.0 | 0.0 | 0.00 | 0.00 | 0.00 | 92 | 1017.8 |
| 20260505053229 | 20 | 213 | 0.0 | 0.0 | 0.00 | 0.00 | 0.00 | 92 | 1018.0 |
| 20260505053044 | 20 | 214 | 0.0 | 0.0 | 0.00 | 0.00 | 0.00 | 92 | 1016.5 |
| 20260505052728 | 20 | 214 | 0.0 | 0.0 | 0.00 | 0.00 | 0.00 | 92 | 1018.0 |
| 20260505052228 | 20 | 194 | 0.0 | 0.0 | 0.00 | 0.00 | 0.00 | 93 | 1018.2 |
| 20260505051729 | 20 | 211 | 0.0 | 0.0 | 0.00 | 0.00 | 0.00 | 93 | 1018.2 |
| 20260505051529 | 20 | 211 | 0.0 | 0.0 | 0.00 | 0.00 | 0.00 | 93 | 1016.8 |
| 20260505051458 | 20 | 211 | 0.0 | 0.0 | 0.00 | 0.00 | 0.00 | 92 | 1018.3 |
| 20260505050725 | 20 | 211 | 0.0 | 0.0 | 0.00 | 0.00 | 0.00 | 92 | 1018.3 |
| 20260505050224 | 21 | 211 | 0.0 | 0.0 | 0.00 | 0.00 | 0.00 | 92 | 1018.4 |
| 20260505041509 | 21 | 211 | 0.0 | 0.0 | 0.00 | 0.00 | 0.00 | 93 | 1017.5 |
| 20260505041217 | 21 | 211 | 0.0 | 0.0 | 0.00 | 0.00 | 0.00 | 93 | 1019.0 |
| 20260505040946 | 21 | 203 | 0.0 | 0.0 | 0.00 | 0.00 | 0.00 | 92 | 1019.0 |
| 20260505040214 | 21 | 203 | 0.0 | 0.0 | 0.00 | 0.00 | 0.00 | 93 | 1018.9 |
| 20260505040051 | 21 | 202 | 0.0 | 0.0 | 0.00 | 0.00 | 0.00 | 93 | 1017.4 |
| 20260505035946 | 21 | 203 | 0.0 | 0.0 | 0.00 | 0.00 | 0.00 | 92 | 1019.0 |
| 20260505035212 | 21 | 203 | 0.0 | 0.0 | 0.00 | 0.00 | 0.00 | 92 | 1019.0 |
| 20260505034713 | 21 | 203 | 0.0 | 0.0 | 0.00 | 0.00 | 0.00 | 93 | 1019.1 |
| 20260505034533 | 21 | 203 | 0.0 | 0.0 | 0.00 | 0.00 | 0.00 | 93 | 1017.5 |
| 20260505034442 | 21 | 202 | 0.0 | 0.0 | 0.00 | 0.00 | 0.00 | 92 | 1019.1 |
| 20260505033708 | 21 | 202 | 0.0 | 0.0 | 0.00 | 0.00 | 0.00 | 92 | 1019.2 |
| 20260505033210 | 21 | 203 | 0.0 | 0.0 | 0.00 | 0.00 | 0.00 | 92 | 1019.2 |
| 20260505033021 | 20 | 203 | 0.0 | 0.0 | 0.00 | 0.00 | 0.00 | 92 | 1017.7 |
| 20260505032721 | 21 | 203 | 0.0 | 0.0 | 0.00 | 0.00 | 0.00 | 92 | 1019.2 |
| 20260505032708 | 21 | 203 | 0.0 | 0.0 | 0.00 | 0.00 | 0.00 | 92 | 1019.2 |
| 20260505031707 | 21 | 202 | 0.0 | 0.0 | 0.00 | 0.00 | 0.00 | 92 | 1019.2 |
| 20260505031511 | 20 | 202 | 0.0 | 0.0 | 0.00 | 0.00 | 0.00 | 92 | 1017.6 |
| 20260505031207 | 21 | 202 | 0.0 | 0.0 | 0.00 | 0.00 | 0.00 | 92 | 1019.1 |
| 20260505030701 | 21 | 202 | 0.0 | 0.0 | 0.00 | 0.00 | 0.00 | 92 | 1019.0 |
| 20260505030155 | 21 | 208 | 0.0 | 0.0 | 0.00 | 0.00 | 0.00 | 92 | 1019.1 |
| 20260505030004 | 20 | 208 | 0.0 | 0.0 | 0.00 | 0.00 | 0.00 | 92 | 1017.6 |
| 20260505025654 | 21 | 208 | 0.0 | 0.0 | 0.00 | 0.00 | 0.00 | 92 | 1019.1 |
| 20260505025150 | 21 | 208 | 0.0 | 0.0 | 0.00 | 0.00 | 0.00 | 92 | 1019.1 |
| 20260505024650 | 20 | 208 | 0.0 | 1.6 | 0.00 | 0.00 | 0.00 | 92 | 1019.1 |
| 20260505024559 | 20 | 208 | 0.0 | 1.6 | 0.00 | 0.00 | 0.00 | 92 | 1017.6 |
| 20260505024147 | 20 | 208 | 0.0 | 1.6 | 0.00 | 0.00 | 0.00 | 92 | 1019.1 |
| 20260505023647 | 20 | 208 | 0.0 | 0.0 | 0.00 | 0.00 | 0.00 | 91 | 1019.1 |
| 20260505023145 | 20 | 208 | 0.0 | 0.0 | 0.00 | 0.00 | 0.00 | 91 | 1019.1 |
| 20260505023034 | 20 | 208 | 0.0 | 0.0 | 0.00 | 0.00 | 0.00 | 91 | 1017.5 |
| 20260505022645 | 20 | 208 | 0.0 | 0.0 | 0.00 | 0.00 | 0.00 | 91 | 1018.9 |
| 20260505022414 | 20 | 208 | 0.0 | 1.6 | 0.00 | 0.00 | 0.00 | 91 | 1018.9 |
| 20260505021645 | 21 | 208 | 0.0 | 1.6 | 0.00 | 0.00 | 0.00 | 91 | 1018.9 |
| 20260505021531 | 20 | 208 | 0.0 | 1.6 | 0.00 | 0.00 | 0.00 | 91 | 1017.4 |
| 20260505021145 | 21 | 208 | 0.0 | 0.0 | 0.00 | 0.00 | 0.00 | 91 | 1018.9 |
| 20260505020638 | 21 | 208 | 0.0 | 0.0 | 0.00 | 0.00 | 0.00 | 91 | 1018.8 |
| 20260505020138 | 21 | 208 | 0.0 | 0.0 | 0.00 | 0.00 | 0.00 | 91 | 1018.8 |
| 20260505020024 | 20 | 208 | 0.0 | 0.0 | 0.00 | 0.00 | 0.00 | 91 | 1017.2 |
| 20260505015911 | 21 | 208 | 0.0 | 0.0 | 0.00 | 0.00 | 0.00 | 91 | 1018.7 |
| 20260505015137 | 21 | 208 | 0.0 | 0.0 | 0.00 | 0.00 | 0.00 | 91 | 1018.9 |
| 20260505014637 | 21 | 208 | 0.0 | 0.0 | 0.00 | 0.00 | 0.00 | 91 | 1018.8 |
| 20260505014524 | 20 | 208 | 0.0 | 0.0 | 0.00 | 0.00 | 0.00 | 91 | 1017.3 |
| 20260505014136 | 21 | 208 | 0.0 | 0.0 | 0.00 | 0.00 | 0.00 | 91 | 1018.8 |
| 20260505013635 | 21 | 208 | 0.0 | 0.0 | 0.00 | 0.00 | 0.00 | 91 | 1018.7 |
| 20260505013134 | 21 | 208 | 0.0 | 0.0 | 0.00 | 0.00 | 0.00 | 91 | 1018.6 |
| 20260505013016 | 21 | 208 | 0.0 | 0.0 | 0.00 | 0.00 | 0.00 | 91 | 1017.1 |
| 20260505012628 | 21 | 208 | 0.0 | 0.0 | 0.00 | 0.00 | 0.00 | 91 | 1018.7 |
| 20260505012118 | 21 | 208 | 0.0 | 0.0 | 0.00 | 0.00 | 0.00 | 91 | 1018.6 |
| 20260505011848 | 21 | 208 | 0.0 | 0.0 | 0.00 | 0.00 | 0.00 | 91 | 1018.5 |
| 20260505011547 | 21 | 208 | 0.0 | 0.0 | 0.00 | 0.00 | 0.00 | 91 | 1016.9 |
| 20260505011119 | 21 | 208 | 0.0 | 0.0 | 0.00 | 0.00 | 0.00 | 90 | 1018.5 |
| 20260505010618 | 21 | 208 | 0.0 | 0.0 | 0.00 | 0.00 | 0.00 | 90 | 1018.4 |
| 20260505010117 | 21 | 208 | 0.0 | 0.0 | 0.00 | 0.00 | 0.00 | 90 | 1018.2 |
| 20260505010029 | 21 | 208 | 0.0 | 0.0 | 0.00 | 0.00 | 0.00 | 90 | 1016.6 |
| 20260505005613 | 21 | 208 | 0.0 | 1.6 | 0.00 | 0.00 | 0.00 | 90 | 1018.2 |
| 20260505005114 | 22 | 208 | 0.0 | 1.6 | 0.00 | 0.00 | 0.00 | 90 | 1018.2 |
| 20260505004843 | 22 | 208 | 0.0 | 3.2 | 0.00 | 0.00 | 0.00 | 89 | 1018.2 |
| 20260505004520 | 21 | 208 | 0.0 | 3.2 | 0.00 | 0.00 | 0.00 | 89 | 1016.5 |
| 20260505004115 | 22 | 208 | 0.0 | 3.2 | 0.00 | 0.00 | 0.00 | 89 | 1018.1 |
| 20260505003610 | 22 | 208 | 0.0 | 3.2 | 0.00 | 0.00 | 0.00 | 89 | 1018.2 |
| 20260505003111 | 22 | 208 | 0.0 | 3.2 | 0.00 | 0.00 | 0.00 | 89 | 1018.1 |
| 20260505003105 | 22 | 208 | 0.0 | 0.0 | 0.00 | 0.00 | 0.00 | 89 | 1016.5 |
| 20260505002608 | 22 | 208 | 0.0 | 3.2 | 0.00 | 0.00 | 0.00 | 89 | 1018.0 |
| 20260505002107 | 22 | 208 | 0.0 | 0.0 | 0.00 | 0.00 | 0.00 | 88 | 1018.0 |
| 20260505001833 | 22 | 208 | 0.0 | 1.6 | 0.00 | 0.00 | 0.00 | 89 | 1018.1 |
| 20260505001546 | 22 | 208 | 0.0 | 1.6 | 0.00 | 0.00 | 0.00 | 89 | 1016.5 |
| 20260505001056 | 22 | 208 | 0.0 | 1.6 | 0.00 | 0.00 | 0.00 | 88 | 1018.0 |
| 20260505000553 | 22 | 209 | 0.0 | 1.6 | 0.00 | 0.00 | 0.00 | 88 | 1018.0 |
| 20260505000053 | 22 | 209 | 0.0 | 1.6 | 0.00 | 0.00 | 0.00 | 88 | 1018.1 |
| 20260505000023 | 22 | 209 | 0.0 | 1.6 | 0.00 | 0.00 | 0.00 | 88 | 1016.4 |
| 20260504235554 | 22 | 209 | 0.0 | 1.6 | 0.00 | 0.00 | 0.00 | 88 | 1018.1 |
| 20260504235052 | 23 | 209 | 0.0 | 1.6 | 0.00 | 0.00 | 0.00 | 87 | 1018.1 |
| 20260504234826 | 23 | 209 | 0.0 | 0.0 | 0.00 | 0.00 | 0.00 | 87 | 1018.1 |
| 20260504234054 | 23 | 209 | 0.0 | 0.0 | 0.00 | 0.00 | 0.00 | 86 | 1018.0 |
| 20260504233547 | 23 | 209 | 0.0 | 1.6 | 0.00 | 0.00 | 0.00 | 86 | 1017.8 |
| 20260504233046 | 23 | 209 | 0.0 | 1.6 | 0.00 | 0.00 | 0.00 | 86 | 1017.8 |
| 20260504233025 | 23 | 209 | 0.0 | 1.6 | 0.00 | 0.00 | 0.00 | 86 | 1016.3 |
| 20260504232543 | 23 | 257 | 0.0 | 1.6 | 0.00 | 0.00 | 0.00 | 86 | 1017.8 |
| 20260504232041 | 23 | 285 | 0.0 | 3.2 | 0.00 | 0.00 | 0.00 | 85 | 1017.6 |
| 20260504231541 | 23 | 225 | 0.0 | 3.2 | 0.00 | 0.00 | 0.00 | 86 | 1017.7 |
| 20260504231532 | 23 | 225 | 1.6 | 3.2 | 0.00 | 0.00 | 0.00 | 86 | 1016.2 |
| 20260504231041 | 23 | 205 | 0.0 | 1.6 | 0.00 | 0.00 | 0.00 | 86 | 1017.7 |
| 20260504230547 | 23 | 179 | 1.6 | 6.4 | 0.00 | 0.00 | 0.00 | 85 | 1017.6 |
| 20260504230540 | 23 | 300 | 0.0 | 3.2 | 0.00 | 0.00 | 0.00 | 86 | 1017.7 |
| 20260504230001 | 23 | 179 | 0.0 | 3.2 | 0.00 | 0.00 | 0.00 | 85 | 1016.1 |
| 20260504225533 | 23 | 107 | 1.6 | 6.4 | 0.00 | 0.00 | 0.00 | 86 | 1017.6 |
| 20260504225035 | 23 | 207 | 0.0 | 4.8 | 0.00 | 0.00 | 0.00 | 86 | 1017.5 |
| 20260504224805 | 23 | 286 | 0.0 | 3.2 | 0.00 | 0.00 | 0.00 | 87 | 1017.5 |
| 20260504224644 | 23 | 286 | 0.0 | 3.2 | 0.00 | 0.00 | 0.00 | 87 | 1015.9 |
| 20260504224034 | 23 | 286 | 0.0 | 3.2 | 0.00 | 0.00 | 0.00 | 87 | 1017.3 |
| 20260504223533 | 23 | 246 | 0.0 | 3.2 | 0.00 | 0.00 | 0.00 | 87 | 1017.4 |
| 20260504223031 | 23 | 340 | 1.6 | 6.4 | 0.00 | 0.00 | 0.00 | 86 | 1017.3 |
| 20260504223024 | 23 | 306 | 0.0 | 3.2 | 0.00 | 0.00 | 0.00 | 86 | 1015.7 |
| 20260504222802 | 23 | 327 | 1.6 | 6.4 | 0.00 | 0.00 | 0.00 | 85 | 1017.1 |
| 20260504222257 | 23 | 284 | 1.6 | 6.4 | 0.00 | 0.00 | 0.00 | 85 | 1017.0 |
| 20260504221529 | 24 | 227 | 1.6 | 6.4 | 0.00 | 0.00 | 0.00 | 85 | 1017.1 |
| 20260504221519 | 23 | 227 | 0.0 | 6.4 | 0.00 | 0.00 | 0.00 | 85 | 1015.6 |
| 20260504221029 | 24 | 94 | 1.6 | 6.4 | 0.00 | 0.00 | 0.00 | 85 | 1017.1 |
| 20260504220526 | 24 | 256 | 1.6 | 8.0 | 0.00 | 0.00 | 0.00 | 85 | 1017.1 |
| 20260504220020 | 24 | 196 | 1.6 | 9.7 | 0.00 | 0.00 | 0.00 | 84 | 1017.0 |
| 20260504220009 | 24 | 207 | 0.0 | 8.0 | 0.00 | 0.00 | 0.00 | 84 | 1015.4 |
| 20260504215746 | 25 | 286 | 1.6 | 9.7 | 0.00 | 0.00 | 0.00 | 84 | 1017.0 |
| 20260504215014 | 25 | 238 | 3.2 | 11.3 | 0.00 | 0.00 | 0.00 | 82 | 1016.9 |
| 20260504214608 | 25 | 297 | 1.6 | 11.3 | 0.00 | 0.00 | 0.00 | 81 | 1015.3 |
| 20260504214514 | 25 | 298 | 3.2 | 11.3 | 0.00 | 0.00 | 0.00 | 81 | 1016.9 |
| 20260504214014 | 25 | 298 | 3.2 | 9.7 | 0.00 | 0.00 | 0.00 | 81 | 1016.6 |
| 20260504213512 | 25 | 240 | 3.2 | 9.7 | 0.00 | 0.00 | 0.00 | 80 | 1016.5 |
| 20260504213055 | 25 | 185 | 1.6 | 11.3 | 0.00 | 0.00 | 0.00 | 79 | 1015.0 |
| 20260504213013 | 25 | 185 | 3.2 | 11.3 | 0.00 | 0.00 | 0.00 | 79 | 1016.6 |
| 20260504212512 | 26 | 323 | 3.2 | 11.3 | 0.00 | 0.00 | 0.00 | 79 | 1016.6 |
| 20260504212011 | 26 | 269 | 3.2 | 8.0 | 0.00 | 0.00 | 0.00 | 81 | 1016.6 |
| 20260504211534 | 25 | 302 | 1.6 | 8.0 | 0.00 | 0.00 | 0.00 | 79 | 1014.9 |
| 20260504211510 | 26 | 304 | 3.2 | 8.0 | 0.00 | 0.00 | 0.00 | 79 | 1016.6 |
| 20260504211009 | 26 | 355 | 3.2 | 11.3 | 0.00 | 0.00 | 0.00 | 79 | 1016.6 |
| 20260504210509 | 26 | 24 | 3.2 | 11.3 | 0.00 | 0.00 | 0.00 | 78 | 1016.5 |
| 20260504210018 | 26 | 326 | 1.6 | 8.0 | 0.00 | 0.00 | 0.00 | 80 | 1014.9 |
| 20260504210010 | 26 | 331 | 3.2 | 8.0 | 0.00 | 0.00 | 0.00 | 80 | 1016.5 |
| 20260504205740 | 26 | 280 | 3.2 | 9.7 | 0.00 | 0.00 | 0.00 | 80 | 1016.4 |
| 20260504205241 | 26 | 261 | 3.2 | 9.7 | 0.00 | 0.00 | 0.00 | 81 | 1016.4 |
| 20260504204518 | 25 | 252 | 1.6 | 14.5 | 0.00 | 0.00 | 0.00 | 80 | 1014.8 |
| 20260504204509 | 26 | 252 | 4.8 | 14.5 | 0.00 | 0.00 | 0.00 | 80 | 1016.4 |
| 20260504204010 | 26 | 317 | 4.8 | 14.5 | 0.00 | 0.00 | 0.00 | 81 | 1016.4 |
| 20260504203508 | 25 | 0 | 3.2 | 9.7 | 0.00 | 0.00 | 0.00 | 83 | 1016.3 |
| 20260504203013 | 25 | 287 | 3.2 | 8.0 | 0.00 | 0.00 | 0.00 | 83 | 1014.7 |
| 20260504203008 | 25 | 310 | 3.2 | 8.0 | 0.00 | 0.00 | 0.00 | 83 | 1016.4 |
| 20260504202510 | 25 | 209 | 3.2 | 8.0 | 0.00 | 0.00 | 0.00 | 83 | 1016.5 |
| 20260504202241 | 25 | 40 | 3.2 | 12.9 | 0.00 | 0.00 | 0.00 | 82 | 1016.5 |
| 20260504201741 | 26 | 297 | 3.2 | 12.9 | 0.00 | 0.00 | 0.00 | 81 | 1016.5 |
| 20260504201505 | 25 | 314 | 3.2 | 12.9 | 0.00 | 0.00 | 0.00 | 81 | 1014.8 |
| 20260504201011 | 26 | 320 | 3.2 | 8.0 | 0.00 | 0.00 | 0.00 | 80 | 1016.6 |
| 20260504200517 | 26 | 311 | 3.2 | 11.3 | 0.00 | 0.00 | 0.00 | 79 | 1016.6 |
| 20260504200511 | 26 | 257 | 3.2 | 11.3 | 0.00 | 0.00 | 0.00 | 79 | 1016.5 |
| 20260504200005 | 26 | 344 | 3.2 | 11.3 | 0.00 | 0.00 | 0.00 | 79 | 1015.0 |
| 20260504195508 | 26 | 253 | 3.2 | 8.0 | 0.00 | 0.00 | 0.00 | 80 | 1016.6 |
| 20260504195008 | 26 | 140 | 3.2 | 9.7 | 0.00 | 0.00 | 0.00 | 80 | 1016.6 |
| 20260504194738 | 26 | 18 | 3.2 | 11.3 | 0.00 | 0.00 | 0.00 | 82 | 1016.6 |
| 20260504194627 | 26 | 19 | 3.2 | 9.7 | 0.00 | 0.00 | 0.00 | 83 | 1014.9 |
| 20260504194007 | 26 | 208 | 3.2 | 11.3 | 0.00 | 0.00 | 0.00 | 81 | 1016.7 |
| 20260504193507 | 26 | 67 | 4.8 | 9.7 | 0.00 | 0.00 | 0.00 | 81 | 1016.7 |
| 20260504193047 | 26 | 86 | 3.2 | 11.3 | 0.00 | 0.00 | 0.00 | 79 | 1015.1 |
| 20260504193004 | 26 | 302 | 3.2 | 11.3 | 0.00 | 0.00 | 0.00 | 79 | 1016.8 |
| 20260504192505 | 26 | 214 | 3.2 | 12.9 | 0.00 | 0.00 | 0.00 | 79 | 1016.8 |
| 20260504192003 | 26 | 209 | 3.2 | 12.9 | 0.00 | 0.00 | 0.00 | 78 | 1016.7 |
| 20260504191545 | 26 | 303 | 1.6 | 9.7 | 0.00 | 0.00 | 0.00 | 80 | 1015.1 |
| 20260504191502 | 26 | 322 | 4.8 | 9.7 | 0.00 | 0.00 | 0.00 | 79 | 1016.7 |
| 20260504191002 | 27 | 336 | 4.8 | 9.7 | 0.00 | 0.00 | 0.00 | 78 | 1016.9 |
| 20260504190729 | 27 | 344 | 4.8 | 11.3 | 0.00 | 0.00 | 0.00 | 77 | 1016.9 |
| 20260504190230 | 27 | 331 | 3.2 | 14.5 | 0.00 | 0.00 | 0.00 | 76 | 1016.9 |
| 20260504190117 | 27 | 360 | 4.8 | 14.5 | 0.00 | 0.00 | 0.00 | 76 | 1015.2 |
| 20260504185458 | 27 | 289 | 3.2 | 14.5 | 0.00 | 0.00 | 0.00 | 75 | 1016.9 |
| 20260504184957 | 27 | 273 | 3.2 | 8.0 | 0.00 | 0.00 | 0.00 | 75 | 1016.9 |
| 20260504184513 | 27 | 289 | 1.6 | 9.7 | 0.00 | 0.00 | 0.00 | 74 | 1015.4 |
| 20260504184456 | 28 | 284 | 3.2 | 9.7 | 0.00 | 0.00 | 0.00 | 73 | 1017.0 |
| 20260504183953 | 28 | 247 | 4.8 | 11.3 | 0.00 | 0.00 | 0.00 | 75 | 1016.9 |
| 20260504183447 | 28 | 309 | 3.2 | 11.3 | 0.00 | 0.00 | 0.00 | 78 | 1017.0 |
| 20260504183102 | 27 | 264 | 3.2 | 8.0 | 0.00 | 0.00 | 0.00 | 76 | 1015.3 |
| 20260504182937 | 27 | 331 | 3.2 | 11.3 | 0.00 | 0.00 | 0.00 | 76 | 1017.0 |
| 20260504182437 | 27 | 31 | 4.8 | 11.3 | 0.00 | 0.00 | 0.00 | 77 | 1016.9 |
| 20260504181937 | 27 | 284 | 4.8 | 11.3 | 0.00 | 0.00 | 0.00 | 78 | 1017.1 |
| 20260504181554 | 27 | 262 | 4.8 | 11.3 | 0.00 | 0.00 | 0.00 | 75 | 1015.4 |
| 20260504181437 | 27 | 316 | 4.8 | 12.9 | 0.00 | 0.00 | 0.00 | 75 | 1017.1 |
| 20260504180936 | 27 | 42 | 3.2 | 12.9 | 0.00 | 0.00 | 0.00 | 74 | 1016.9 |
| 20260504180434 | 27 | 346 | 3.2 | 9.7 | 0.00 | 0.00 | 0.00 | 75 | 1017.1 |
| 20260504180053 | 27 | 307 | 3.2 | 9.7 | 0.00 | 0.00 | 0.00 | 76 | 1015.6 |
| 20260504175934 | 27 | 280 | 3.2 | 9.7 | 0.00 | 0.00 | 0.00 | 75 | 1017.3 |
| 20260504175434 | 27 | 168 | 4.8 | 12.9 | 0.00 | 0.00 | 0.00 | 73 | 1017.3 |
| 20260504174933 | 27 | 292 | 4.8 | 12.9 | 0.00 | 0.00 | 0.00 | 74 | 1017.2 |
| 20260504174703 | 27 | 348 | 4.8 | 11.3 | 0.00 | 0.00 | 0.00 | 74 | 1017.3 |
| 20260504174556 | 27 | 206 | 3.2 | 11.3 | 0.00 | 0.00 | 0.00 | 75 | 1015.7 |
| 20260504174202 | 27 | 336 | 4.8 | 14.5 | 0.00 | 0.00 | 0.00 | 74 | 1017.4 |
| 20260504173432 | 27 | 77 | 4.8 | 14.5 | 0.00 | 0.00 | 0.00 | 74 | 1017.4 |
| 20260504173155 | 27 | 321 | 4.8 | 11.3 | 0.00 | 0.00 | 0.00 | 75 | 1017.4 |
| 20260504173041 | 27 | 345 | 3.2 | 11.3 | 0.00 | 0.00 | 0.00 | 75 | 1015.8 |
| 20260504172417 | 27 | 312 | 3.2 | 9.7 | 0.00 | 0.00 | 0.00 | 74 | 1017.4 |
| 20260504171915 | 27 | 301 | 4.8 | 9.7 | 0.00 | 0.00 | 0.00 | 74 | 1017.6 |
| 20260504171613 | 26 | 336 | 4.8 | 9.7 | 0.00 | 0.00 | 0.00 | 74 | 1016.2 |
| 20260504171414 | 27 | 127 | 3.2 | 9.7 | 0.00 | 0.00 | 0.00 | 75 | 1017.8 |
| 20260504170915 | 26 | 119 | 4.8 | 11.3 | 0.00 | 0.00 | 0.00 | 74 | 1017.8 |
| 20260504170414 | 27 | 244 | 6.4 | 11.3 | 0.00 | 0.00 | 0.00 | 73 | 1017.7 |
| 20260504160419 | 26 | 336 | 4.8 | 11.3 | 0.00 | 0.00 | 0.00 | 74 | 1018.5 |
| 20260504150904 | 25 | 15 | 4.8 | 14.5 | 0.00 | 0.00 | 0.00 | 75 | 1018.7 |
| 20260504150404 | 25 | 71 | 4.8 | 12.9 | 0.00 | 0.00 | 0.00 | 75 | 1018.7 |
| 20260504150135 | 25 | 196 | 3.2 | 8.0 | 0.00 | 0.00 | 0.00 | 77 | 1018.6 |
| 20260504140900 | 25 | 252 | 1.6 | 8.0 | 0.00 | 0.00 | 0.00 | 81 | 1018.5 |
| 20260504140400 | 25 | 145 | 4.8 | 16.1 | 0.00 | 0.00 | 0.00 | 81 | 1018.7 |
| 20260504140106 | 25 | 32 | 3.2 | 16.1 | 0.00 | 0.00 | 0.00 | 81 | 1017.1 |
| 20260504130351 | 24 | 355 | 3.2 | 9.7 | 0.00 | 0.00 | 0.00 | 85 | 1018.8 |
| 20260504110316 | 21 | 92 | 0.0 | 6.4 | 0.00 | 0.00 | 0.00 | 91 | 1018.4 |
| 20260504100305 | 21 | 135 | 1.6 | 8.0 | 0.00 | 0.00 | 0.00 | 90 | 1018.0 |